Time,TemperatureF,DewpointF,PressureIn,WindDirection,WindDirectionDegrees,WindSpeedMPH,WindSpeedGustMPH,Humidity,HourlyPrecipIn,Conditions,Clouds,dailyrainin,SoftwareType,DateUTC
2013-05-10 00:03:00,68.0,38.0,-100.00,SSE,160,4.0,7.0,33,0.00,,,-99.99,,2013-05-10 04:03:00,
2013-05-10 00:12:00,68.0,38.0,-100.00,SSE,150,5.0,8.0,33,0.00,,,-99.99,,2013-05-10 04:12:00,
2013-05-10 00:23:00,68.0,38.0,-100.00,South,170,5.0,11.0,33,0.00,,,-99.99,,2013-05-10 04:23:00,
2013-05-10 00:33:00,69.0,38.0,-100.00,SSE,165,7.0,12.0,33,0.00,,,-99.99,,2013-05-10 04:33:00,
2013-05-10 00:43:00,69.0,38.0,-100.00,SSE,155,6.0,9.0,33,0.00,,,-99.99,,2013-05-10 04:43:00,
2013-05-10 00:52:00,69.0,38.0,-100.00,SSE,155,6.0,9.0,33,0.00,,,-99.99,,2013-05-10 04:52:00,
2013-05-10 01:02:00,69.0,39.0,-100.00,SSE,160,6.0,10.0,32,0.00,,,-99.99,,2013-05-10 05:02:00,
2013-05-10 01:12:00,69.0,39.0,-100.00,South,175,7.0,12.0,33,0.00,,,-99.99,,2013-05-10 05:12:00,
2013-05-10 01:22:00,69.0,40.0,-100.00,South,170,7.0,9.0,35,0.00,,,-99.99,,2013-05-10 05:22:00,
2013-05-10 01:32:00,69.0,42.0,-100.00,SSE,160,6.0,9.0,37,0.00,,,-99.99,,2013-05-10 05:32:00,
2013-05-10 01:42:00,69.0,42.0,-100.00,SSE,160,6.0,9.0,37,0.00,,,-99.99,,2013-05-10 05:42:00,
2013-05-10 01:52:00,68.0,44.0,-100.00,South,180,7.0,12.0,42,0.00,,,-99.99,,2013-05-10 05:52:00,
2013-05-10 02:02:00,68.0,44.0,-100.00,South,180,7.0,12.0,42,0.00,,,-99.99,,2013-05-10 06:02:00,
2013-05-10 02:12:00,67.0,47.0,-100.00,South,180,7.0,11.0,47,0.00,,,-99.99,,2013-05-10 06:12:00,
2013-05-10 02:22:00,67.0,48.0,-100.00,South,185,7.0,12.0,51,0.00,,,-99.99,,2013-05-10 06:22:00,
2013-05-10 02:32:00,66.0,49.0,-100.00,SSW,200,4.0,11.0,54,0.00,,,-99.99,,2013-05-10 06:32:00,
2013-05-10 02:42:00,66.0,50.0,-100.00,SSW,210,4.0,9.0,57,0.00,,,-99.99,,2013-05-10 06:42:00,
2013-05-10 02:51:00,66.0,52.0,-100.00,SSW,195,4.0,7.0,59,0.00,,,-99.99,,2013-05-10 06:51:00,
2013-05-10 03:02:00,66.0,53.0,-100.00,SSW,200,4.0,7.0,62,0.00,,,-99.99,,2013-05-10 07:02:00,
2013-05-10 03:12:00,66.0,53.0,-100.00,South,180,2.0,5.0,64,0.00,,,-99.99,,2013-05-10 07:12:00,
2013-05-10 03:22:00,65.0,54.0,-100.00,South,170,2.0,4.0,66,0.00,,,-99.99,,2013-05-10 07:22:00,
2013-05-10 03:32:00,65.0,54.0,-100.00,SE,145,2.0,4.0,68,0.00,,,-99.99,,2013-05-10 07:32:00,
2013-05-10 03:42:00,64.0,55.0,-100.00,SSE,150,1.0,2.0,70,0.00,,,-99.99,,2013-05-10 07:42:00,
2013-05-10 03:52:00,64.0,55.0,-100.00,SSE,150,1.0,3.0,72,0.00,,,-99.99,,2013-05-10 07:52:00,
2013-05-10 04:02:00,64.0,55.0,-100.00,South,180,2.0,4.0,73,0.00,,,-99.99,,2013-05-10 08:02:00,
2013-05-10 04:12:00,64.0,56.0,-100.00,South,175,6.0,9.0,73,0.00,,,-99.99,,2013-05-10 08:12:00,
2013-05-10 04:22:00,64.0,56.0,-100.00,South,175,6.0,9.0,73,0.00,,,-99.99,,2013-05-10 08:22:00,
2013-05-10 04:32:00,65.0,56.0,-100.00,South,180,6.0,9.0,74,0.00,,,-99.99,,2013-05-10 08:32:00,
2013-05-10 04:42:00,64.0,56.0,-100.00,South,175,4.0,7.0,75,0.00,,,-99.99,,2013-05-10 08:42:00,
2013-05-10 04:52:00,64.0,56.0,-100.00,South,175,4.0,7.0,75,0.00,,,-99.99,,2013-05-10 08:52:00,
2013-05-10 05:02:00,64.0,57.0,-100.00,South,170,4.0,6.0,76,0.00,,,-99.99,,2013-05-10 09:02:00,
2013-05-10 05:11:00,64.0,57.0,-100.00,SSW,195,4.0,6.0,79,0.00,,,-99.99,,2013-05-10 09:11:00,
2013-05-10 05:21:00,63.0,58.0,-100.00,SSW,205,7.0,9.0,83,4.53,,,-99.99,,2013-05-10 09:21:00,
2013-05-10 05:33:00,62.0,59.0,-100.00,SW,230,3.0,11.0,89,15.87,,,-99.99,,2013-05-10 09:33:00,
2013-05-10 05:43:00,61.0,59.0,-100.00,SW,220,4.0,9.0,91,11.34,,,-99.99,,2013-05-10 09:43:00,
2013-05-10 05:52:00,61.0,59.0,-100.00,South,180,4.0,7.0,93,0.00,,,-99.99,,2013-05-10 09:52:00,
2013-05-10 06:03:00,61.0,59.0,-100.00,South,175,7.0,10.0,95,0.55,,,-99.99,,2013-05-10 10:03:00,
2013-05-10 06:12:00,60.0,59.0,-100.00,South,185,7.0,11.0,95,0.00,,,-99.99,,2013-05-10 10:12:00,
2013-05-10 06:23:00,60.0,59.0,-100.00,South,190,7.0,10.0,96,0.00,,,-99.99,,2013-05-10 10:23:00,
2013-05-10 06:32:00,60.0,59.0,-100.00,South,175,4.0,7.0,96,0.00,,,-99.99,,2013-05-10 10:32:00,
2013-05-10 06:42:00,60.0,59.0,-100.00,SSE,150,5.0,9.0,96,0.00,,,-99.99,,2013-05-10 10:42:00,
2013-05-10 06:52:00,60.0,59.0,-100.00,South,185,7.0,10.0,96,0.00,,,-99.99,,2013-05-10 10:52:00,
2013-05-10 07:02:00,60.0,59.0,-100.00,South,185,9.0,12.0,96,0.00,,,-99.99,,2013-05-10 11:02:00,
2013-05-10 07:12:00,60.0,59.0,-100.00,South,180,9.0,12.0,96,0.00,,,-99.99,,2013-05-10 11:12:00,
2013-05-10 07:22:00,60.0,59.0,-100.00,South,180,9.0,12.0,96,0.00,,,-99.99,,2013-05-10 11:22:00,
2013-05-10 07:32:00,60.0,59.0,-100.00,South,185,9.0,12.0,96,0.00,,,-99.99,,2013-05-10 11:32:00,
2013-05-10 07:42:00,60.0,59.0,-100.00,South,175,9.0,12.0,96,0.00,,,-99.99,,2013-05-10 11:42:00,
2013-05-10 07:51:00,60.0,59.0,-100.00,South,175,8.0,13.0,96,0.00,,,-99.99,,2013-05-10 11:51:00,
2013-05-10 08:02:00,61.0,60.0,-100.00,South,185,12.0,16.0,95,0.00,,,-99.99,,2013-05-10 12:02:00,
2013-05-10 08:12:00,61.0,60.0,-100.00,South,185,9.0,16.0,95,0.00,,,-99.99,,2013-05-10 12:12:00,
2013-05-10 08:21:00,62.0,60.0,-100.00,South,180,13.0,19.0,94,0.00,,,-99.99,,2013-05-10 12:21:00,
2013-05-10 08:32:00,62.0,60.0,-100.00,South,185,10.0,18.0,93,0.00,,,-99.99,,2013-05-10 12:32:00,
2013-05-10 08:42:00,63.0,60.0,-100.00,South,185,10.0,19.0,91,0.00,,,-99.99,,2013-05-10 12:42:00,
2013-05-10 08:51:00,63.0,60.0,-100.00,South,180,10.0,16.0,90,0.00,,,-99.99,,2013-05-10 12:51:00,
2013-05-10 09:01:00,63.0,60.0,-100.00,South,180,10.0,16.0,90,0.00,,,-99.99,,2013-05-10 13:01:00,
2013-05-10 09:11:00,65.0,61.0,-100.00,SSW,195,9.0,17.0,86,0.00,,,-99.99,,2013-05-10 13:11:00,
2013-05-10 09:21:00,65.0,61.0,-100.00,South,190,11.0,17.0,86,0.00,,,-99.99,,2013-05-10 13:21:00,
2013-05-10 09:32:00,65.0,61.0,-100.00,South,185,12.0,21.0,86,0.00,,,-99.99,,2013-05-10 13:32:00,
2013-05-10 09:42:00,65.0,61.0,-100.00,South,185,9.0,22.0,86,0.00,,,-99.99,,2013-05-10 13:42:00,
2013-05-10 09:52:00,66.0,62.0,-100.00,SSW,205,7.0,13.0,86,0.00,,,-99.99,,2013-05-10 13:52:00,
2013-05-10 10:02:00,66.0,61.0,-100.00,SW,215,9.0,16.0,86,0.00,,,-99.99,,2013-05-10 14:02:00,
2013-05-10 10:11:00,66.0,61.0,-100.00,South,180,12.0,21.0,83,0.00,,,-99.99,,2013-05-10 14:11:00,
2013-05-10 10:21:00,66.0,61.0,-100.00,South,180,12.0,21.0,83,0.00,,,-99.99,,2013-05-10 14:21:00,
2013-05-10 10:32:00,67.0,62.0,-100.00,SSW,200,9.0,16.0,82,0.00,,,-99.99,,2013-05-10 14:32:00,
2013-05-10 10:42:00,68.0,62.0,-100.00,SSW,195,7.0,17.0,82,0.00,,,-99.99,,2013-05-10 14:42:00,
2013-05-10 10:51:00,68.0,62.0,-100.00,SSW,195,11.0,21.0,80,0.00,,,-99.99,,2013-05-10 14:51:00,
2013-05-10 11:02:00,68.0,62.0,-100.00,South,190,11.0,18.0,79,0.00,,,-99.99,,2013-05-10 15:02:00,
2013-05-10 11:20:00,-999.0,-99.9,-100.00,South,185,10.0,17.0,79,0.00,,,-99.99,,2013-05-10 15:20:00,
2013-05-10 11:32:00,69.0,62.0,-100.00,South,180,11.0,16.0,78,0.00,,,-99.99,,2013-05-10 15:32:00,
2013-05-10 11:42:00,70.0,63.0,-100.00,South,175,8.0,20.0,77,0.00,,,-99.99,,2013-05-10 15:42:00,
2013-05-10 11:52:00,70.0,62.0,-100.00,South,175,11.0,18.0,76,0.00,,,-99.99,,2013-05-10 15:52:00,
2013-05-10 12:02:00,71.0,63.0,-100.00,SSW,200,9.0,16.0,75,0.00,,,-99.99,,2013-05-10 16:02:00,
2013-05-10 12:12:00,70.0,62.0,-100.00,SW,220,9.0,15.0,74,0.00,,,-99.99,,2013-05-10 16:12:00,
2013-05-10 12:23:00,71.0,62.0,-100.00,South,180,9.0,15.0,73,0.00,,,-99.99,,2013-05-10 16:23:00,
2013-05-10 12:33:00,73.0,63.0,-100.00,SW,215,7.0,14.0,71,0.00,,,-99.99,,2013-05-10 16:33:00,
2013-05-10 12:42:00,72.0,62.0,-100.00,South,185,11.0,18.0,71,0.00,,,-99.99,,2013-05-10 16:42:00,
2013-05-10 12:52:00,72.0,62.0,-100.00,South,185,12.0,18.0,71,0.00,,,-99.99,,2013-05-10 16:52:00,
2013-05-10 13:02:00,72.0,62.0,-100.00,SW,230,7.0,19.0,71,0.00,,,-99.99,,2013-05-10 17:02:00,
2013-05-10 13:12:00,72.0,63.0,-100.00,SSW,205,7.0,17.0,71,0.00,,,-99.99,,2013-05-10 17:12:00,
2013-05-10 13:22:00,72.0,63.0,-100.00,SSW,205,7.0,17.0,71,0.00,,,-99.99,,2013-05-10 17:22:00,
2013-05-10 13:32:00,73.0,63.0,-100.00,SSW,205,9.0,20.0,70,0.00,,,-99.99,,2013-05-10 17:32:00,
2013-05-10 13:42:00,73.0,63.0,-100.00,SSW,195,11.0,19.0,70,0.00,,,-99.99,,2013-05-10 17:42:00,
2013-05-10 13:52:00,74.0,63.0,-100.00,South,190,2.0,16.0,69,0.00,,,-99.99,,2013-05-10 17:52:00,
2013-05-10 14:10:00,-999.0,-99.9,-100.00,SW,235,11.0,19.0,67,0.00,,,-99.99,,2013-05-10 18:10:00,
2013-05-10 14:22:00,75.0,63.0,-100.00,SW,220,7.0,16.0,66,0.00,,,-99.99,,2013-05-10 18:22:00,
2013-05-10 14:34:00,74.0,63.0,-100.00,SSW,195,9.0,17.0,67,0.00,,,-99.99,,2013-05-10 18:34:00,
2013-05-10 14:43:00,74.0,63.0,-100.00,SSW,210,9.0,21.0,67,0.00,,,-99.99,,2013-05-10 18:43:00,
2013-05-10 14:54:00,74.0,63.0,-100.00,South,180,6.0,16.0,67,0.00,,,-99.99,,2013-05-10 18:54:00,
2013-05-10 15:02:00,74.0,62.0,-100.00,South,185,7.0,17.0,67,0.00,,,-99.99,,2013-05-10 19:02:00,
2013-05-10 15:11:00,73.0,62.0,-100.00,WSW,240,8.0,21.0,67,0.00,,,-99.99,,2013-05-10 19:11:00,
2013-05-10 15:21:00,73.0,62.0,-100.00,SW,220,6.0,14.0,68,0.00,,,-99.99,,2013-05-10 19:21:00,
2013-05-10 15:32:00,74.0,62.0,-100.00,West,265,4.0,12.0,67,0.00,,,-99.99,,2013-05-10 19:32:00,
2013-05-10 15:42:00,74.0,62.0,-100.00,West,275,7.0,16.0,67,0.00,,,-99.99,,2013-05-10 19:42:00,
2013-05-10 15:52:00,73.0,62.0,-100.00,SW,235,6.0,12.0,68,0.00,,,-99.99,,2013-05-10 19:52:00,
2013-05-10 16:02:00,73.0,62.0,-100.00,SSW,205,2.0,14.0,69,0.00,,,-99.99,,2013-05-10 20:02:00,
2013-05-10 16:12:00,72.0,62.0,-100.00,South,185,4.0,12.0,71,0.00,,,-99.99,,2013-05-10 20:12:00,
2013-05-10 16:21:00,70.0,63.0,-100.00,SSW,210,4.0,14.0,79,4.53,,,-99.99,,2013-05-10 20:21:00,
2013-05-10 16:32:00,66.0,62.0,-100.00,SSW,210,8.0,19.0,88,6.77,,,-99.99,,2013-05-10 20:32:00,
2013-05-10 16:42:00,64.0,62.0,-100.00,SSW,205,11.0,22.0,92,7.36,,,-99.99,,2013-05-10 20:42:00,
2013-05-10 16:52:00,62.0,61.0,-100.00,SW,230,9.0,25.0,94,7.91,,,-99.99,,2013-05-10 20:52:00,
2013-05-10 17:02:00,62.0,61.0,-100.00,SW,220,5.0,19.0,95,6.22,,,-99.99,,2013-05-10 21:02:00,
2013-05-10 17:11:00,62.0,60.0,-100.00,SW,235,5.0,13.0,95,9.06,,,-99.99,,2013-05-10 21:11:00,
2013-05-10 17:25:00,62.0,61.0,-100.00,SW,225,4.0,12.0,95,2.24,,,-99.99,,2013-05-10 21:25:00,
2013-05-10 17:32:00,62.0,61.0,-100.00,SW,220,2.0,12.0,95,0.55,,,-99.99,,2013-05-10 21:32:00,
2013-05-10 17:43:00,62.0,61.0,-100.00,SSW,205,4.0,11.0,95,0.55,,,-99.99,,2013-05-10 21:43:00,
2013-05-10 17:52:00,62.0,61.0,-100.00,SW,220,7.0,12.0,95,0.55,,,-99.99,,2013-05-10 21:52:00,
2013-05-10 18:02:00,62.0,61.0,-100.00,SSW,195,3.0,11.0,95,1.10,,,-99.99,,2013-05-10 22:02:00,
2013-05-10 18:13:00,62.0,61.0,-100.00,SSW,195,3.0,11.0,95,1.10,,,-99.99,,2013-05-10 22:13:00,
2013-05-10 18:22:00,62.0,61.0,-100.00,SSW,200,3.0,9.0,95,0.55,,,-99.99,,2013-05-10 22:22:00,
2013-05-10 18:32:00,62.0,61.0,-100.00,SW,215,2.0,9.0,95,0.55,,,-99.99,,2013-05-10 22:32:00,
2013-05-10 18:42:00,62.0,61.0,-100.00,SW,215,2.0,9.0,95,0.55,,,-99.99,,2013-05-10 22:42:00,
2013-05-10 18:53:00,62.0,61.0,-100.00,South,185,4.0,11.0,95,0.55,,,-99.99,,2013-05-10 22:53:00,
2013-05-10 19:02:00,62.0,61.0,-100.00,SW,235,5.0,10.0,95,1.10,,,-99.99,,2013-05-10 23:02:00,
2013-05-10 19:12:00,62.0,60.0,-100.00,SSW,195,4.0,9.0,96,0.55,,,-99.99,,2013-05-10 23:12:00,
2013-05-10 19:22:00,62.0,60.0,-100.00,SSW,210,4.0,9.0,96,1.10,,,-99.99,,2013-05-10 23:22:00,
2013-05-10 19:33:00,61.0,60.0,-100.00,South,185,7.0,13.0,96,1.10,,,-99.99,,2013-05-10 23:33:00,
2013-05-10 19:42:00,61.0,60.0,-100.00,SSW,195,6.0,12.0,96,0.55,,,-99.99,,2013-05-10 23:42:00,
2013-05-10 19:52:00,61.0,60.0,-100.00,South,190,6.0,9.0,96,0.55,,,-99.99,,2013-05-10 23:52:00,
2013-05-10 20:02:00,61.0,60.0,-100.00,SSW,200,4.0,10.0,96,0.55,,,-99.99,,2013-05-11 00:02:00,
2013-05-10 20:11:00,61.0,60.0,-100.00,SSW,210,4.0,10.0,96,0.00,,,-99.99,,2013-05-11 00:11:00,
2013-05-10 20:21:00,61.0,60.0,-100.00,SSW,195,3.0,9.0,96,0.00,,,-99.99,,2013-05-11 00:21:00,
2013-05-10 20:32:00,61.0,60.0,-100.00,South,180,7.0,11.0,96,0.00,,,-99.99,,2013-05-11 00:32:00,
2013-05-10 20:42:00,61.0,60.0,-100.00,SSW,195,5.0,10.0,96,0.00,,,-99.99,,2013-05-11 00:42:00,
2013-05-10 20:52:00,61.0,60.0,-100.00,South,190,3.0,9.0,96,0.00,,,-99.99,,2013-05-11 00:52:00,
2013-05-10 21:01:00,61.0,60.0,-100.00,South,180,6.0,12.0,96,0.00,,,-99.99,,2013-05-11 01:01:00,
2013-05-10 21:11:00,61.0,60.0,-100.00,South,175,4.0,11.0,96,0.00,,,-99.99,,2013-05-11 01:11:00,
2013-05-10 21:21:00,61.0,60.0,-100.00,SSW,200,7.0,12.0,96,0.00,,,-99.99,,2013-05-11 01:21:00,
2013-05-10 21:32:00,61.0,60.0,-100.00,SSW,195,6.0,9.0,96,0.00,,,-99.99,,2013-05-11 01:32:00,
2013-05-10 21:42:00,61.0,60.0,-100.00,SSW,195,6.0,14.0,96,0.00,,,-99.99,,2013-05-11 01:42:00,
2013-05-10 21:52:00,61.0,60.0,-100.00,SSW,205,6.0,12.0,96,0.00,,,-99.99,,2013-05-11 01:52:00,
2013-05-10 22:02:00,61.0,60.0,-100.00,SSW,210,5.0,13.0,96,0.00,,,-99.99,,2013-05-11 02:02:00,
2013-05-10 22:11:00,61.0,60.0,-100.00,South,180,6.0,12.0,96,0.00,,,-99.99,,2013-05-11 02:11:00,
2013-05-10 22:22:00,61.0,60.0,-100.00,SSW,195,4.0,9.0,96,0.00,,,-99.99,,2013-05-11 02:22:00,
2013-05-10 22:32:00,61.0,60.0,-100.00,SSW,200,4.0,12.0,96,0.00,,,-99.99,,2013-05-11 02:32:00,
2013-05-10 22:42:00,61.0,60.0,-100.00,SW,225,4.0,9.0,96,0.00,,,-99.99,,2013-05-11 02:42:00,
2013-05-10 22:52:00,61.0,60.0,-100.00,SSW,205,6.0,10.0,96,0.00,,,-99.99,,2013-05-11 02:52:00,
2013-05-10 23:01:00,61.0,60.0,-100.00,SSW,205,4.0,10.0,96,0.00,,,-99.99,,2013-05-11 03:01:00,
2013-05-10 23:11:00,61.0,60.0,-100.00,SW,225,4.0,8.0,96,0.00,,,-99.99,,2013-05-11 03:11:00,
2013-05-10 23:21:00,61.0,60.0,-100.00,West,280,1.0,7.0,96,0.00,,,-99.99,,2013-05-11 03:21:00,
2013-05-10 23:33:00,55.0,54.0,-100.00,North,0,7.0,17.0,96,0.00,,,-99.99,,2013-05-11 03:33:00,
2013-05-10 23:42:00,54.0,53.0,-100.00,NNW,345,10.0,16.0,96,17.01,,,-99.99,,2013-05-11 03:42:00,
2013-05-10 23:53:00,53.0,52.0,-100.00,North,0,7.0,12.0,96,1.69,,,-99.99,,2013-05-11 03:53:00,